GLO1317 SBCF-SBSP

Flight info

Callsign GLO1317
Flight time 0h 53m
Altitude 32000
Route ANDEM UZ30 ENTIT
Aircraft B738/M-SDE2E3FGHIRWXY/LB1

Departure

Time 2026-04-30 22:01
Airport Tancredo Neves International Airport (SBCF)

Arrival

Time 2026-04-30 22:54
Airport Congonhas–Deputado Freitas Nobre Airport (SBSP)
Time Latitude Longitude Altitude Speed Heading
2026-04-30 21:23 -19.62915 -43.96754 2807 ft 0 kts 50°
2026-04-30 21:47 -19.62922 -43.96763 2794 ft 2 kts 48°
2026-04-30 21:47 -19.62931 -43.96774 2797 ft 2 kts 45°
2026-04-30 21:47 -19.62941 -43.96783 2794 ft 2 kts 38°
2026-04-30 21:47 -19.62950 -43.96790 2796 ft 1 kts 22°
2026-04-30 21:48 -19.62958 -43.96793 2795 ft 1 kts 358°
2026-04-30 21:48 -19.62965 -43.96792 2792 ft 1 kts 337°
2026-04-30 21:48 -19.62971 -43.96789 2792 ft 1 kts 325°
2026-04-30 21:48 -19.62975 -43.96785 2792 ft 1 kts 320°
2026-04-30 21:49 -19.62980 -43.96781 2793 ft 1 kts 318°
2026-04-30 21:49 -19.62982 -43.96779 2792 ft 0 kts 317°
2026-04-30 21:52 -19.62975 -43.96786 2792 ft 3 kts 317°
2026-04-30 21:52 -19.62951 -43.96808 2790 ft 6 kts 321°
2026-04-30 21:52 -19.62909 -43.96845 2788 ft 9 kts 320°
2026-04-30 21:53 -19.62860 -43.96889 2788 ft 9 kts 319°
2026-04-30 21:53 -19.62813 -43.96932 2790 ft 9 kts 319°
2026-04-30 21:53 -19.62784 -43.96986 2792 ft 9 kts 277°
2026-04-30 21:53 -19.62794 -43.97047 2791 ft 9 kts 241°
2026-04-30 21:54 -19.62832 -43.97095 2790 ft 8 kts 229°
2026-04-30 21:54 -19.62829 -43.97151 2791 ft 8 kts 308°
2026-04-30 21:54 -19.62779 -43.97196 2789 ft 11 kts 320°
2026-04-30 21:54 -19.62713 -43.97257 2789 ft 14 kts 319°
2026-04-30 21:55 -19.62630 -43.97334 2789 ft 17 kts 319°
2026-04-30 21:55 -19.62537 -43.97420 2788 ft 17 kts 319°
2026-04-30 21:55 -19.62449 -43.97501 2788 ft 16 kts 319°
2026-04-30 21:55 -19.62364 -43.97579 2788 ft 16 kts 319°
2026-04-30 21:56 -19.62299 -43.97640 2788 ft 9 kts 317°
2026-04-30 21:56 -19.62286 -43.97694 2789 ft 8 kts 247°
2026-04-30 21:56 -19.62303 -43.97718 2788 ft 0 kts 229°
2026-04-30 21:57 -19.62304 -43.97719 2788 ft 1 kts 229°
2026-04-30 21:57 -19.62316 -43.97733 2768 ft 5 kts 229°
2026-04-30 21:58 -19.62342 -43.97766 2751 ft 6 kts 230°
2026-04-30 21:58 -19.62373 -43.97793 2751 ft 5 kts 185°
2026-04-30 21:58 -19.62398 -43.97775 2751 ft 0 kts 139°
2026-04-30 22:00 -19.62942 -43.97273 2752 ft 118 kts 139°
2026-04-30 22:00 -19.63711 -43.96562 2754 ft 173 kts 139°
2026-04-30 22:01 -19.64722 -43.95639 3069 ft 196 kts 139°
2026-04-30 22:01 -19.65760 -43.94694 3909 ft 197 kts 136°
2026-04-30 22:01 -19.66775 -43.93744 4779 ft 193 kts 136°
2026-04-30 22:01 -19.67840 -43.92746 5149 ft 215 kts 136°
2026-04-30 22:02 -19.69160 -43.91967 5634 ft 229 kts 165°
2026-04-30 22:02 -19.70761 -43.91962 6359 ft 235 kts 192°
2026-04-30 22:02 -19.72237 -43.92734 7007 ft 246 kts 220°
2026-04-30 22:02 -19.73207 -43.94293 7437 ft 263 kts 253°
2026-04-30 22:03 -19.73294 -43.96261 7926 ft 275 kts 280°
2026-04-30 22:03 -19.72802 -43.98268 8451 ft 288 kts 288°
2026-04-30 22:03 -19.72141 -44.00322 8933 ft 299 kts 290°
2026-04-30 22:03 -19.71438 -44.02409 9403 ft 301 kts 290°
2026-04-30 22:04 -19.70738 -44.04501 9887 ft 302 kts 289°
2026-04-30 22:04 -19.70042 -44.06616 10395 ft 308 kts 289°
2026-04-30 22:04 -19.68555 -44.11233 10729 ft 350 kts 289°
2026-04-30 22:05 -19.67766 -44.13717 11193 ft 358 kts 289°
2026-04-30 22:05 -19.66970 -44.16239 11794 ft 361 kts 289°
2026-04-30 22:05 -19.66174 -44.18766 12447 ft 363 kts 289°
2026-04-30 22:05 -19.65369 -44.21324 13068 ft 366 kts 289°
2026-04-30 22:06 -19.64556 -44.23905 13703 ft 370 kts 289°
2026-04-30 22:06 -19.62921 -44.29087 14870 ft 375 kts 289°
2026-04-30 22:06 -19.62090 -44.31719 15477 ft 377 kts 289°
2026-04-30 22:07 -19.61255 -44.34365 16080 ft 379 kts 289°
2026-04-30 22:07 -19.60416 -44.37017 16677 ft 381 kts 289°
2026-04-30 22:07 -19.59847 -44.39772 17216 ft 386 kts 273°
2026-04-30 22:07 -19.60131 -44.42616 17794 ft 391 kts 255°
2026-04-30 22:08 -19.61230 -44.45257 18350 ft 394 kts 242°
2026-04-30 22:08 -19.62609 -44.47784 18831 ft 397 kts 240°
2026-04-30 22:08 -19.64025 -44.50314 19302 ft 400 kts 240°
2026-04-30 22:08 -19.65444 -44.52863 19819 ft 402 kts 240°
2026-04-30 22:09 -19.66856 -44.55434 20316 ft 404 kts 241°
2026-04-30 22:09 -19.68261 -44.58022 20807 ft 406 kts 241°
2026-04-30 22:09 -19.69666 -44.60632 21274 ft 408 kts 241°
2026-04-30 22:09 -19.71055 -44.63227 21755 ft 411 kts 241°
2026-04-30 22:10 -19.72468 -44.65866 22231 ft 413 kts 241°
2026-04-30 22:10 -19.73909 -44.68554 22696 ft 415 kts 241°
2026-04-30 22:10 -19.75325 -44.71198 23143 ft 418 kts 241°
2026-04-30 22:10 -19.76768 -44.73887 23591 ft 420 kts 241°
2026-04-30 22:11 -19.79680 -44.79305 24352 ft 424 kts 241°
2026-04-30 22:11 -19.81145 -44.82033 24740 ft 425 kts 241°
2026-04-30 22:11 -19.82119 -44.83846 24989 ft 426 kts 241°
2026-04-30 22:12 -19.83591 -44.86589 25366 ft 428 kts 241°
2026-04-30 22:12 -19.85066 -44.89341 25735 ft 430 kts 241°
2026-04-30 22:12 -19.86547 -44.92104 26097 ft 431 kts 241°
2026-04-30 22:12 -19.88034 -44.94880 26446 ft 433 kts 241°
2026-04-30 22:13 -19.89527 -44.97670 26735 ft 436 kts 241°
2026-04-30 22:13 -19.91033 -45.00484 26976 ft 440 kts 241°
2026-04-30 22:13 -19.92552 -45.03324 27221 ft 443 kts 241°
2026-04-30 22:13 -19.94083 -45.06188 27470 ft 446 kts 241°
2026-04-30 22:14 -19.95613 -45.09052 27718 ft 446 kts 241°
2026-04-30 22:14 -19.97145 -45.11921 27959 ft 445 kts 241°
2026-04-30 22:14 -19.98672 -45.14780 28211 ft 445 kts 241°
2026-04-30 22:14 -20.00198 -45.17642 28460 ft 444 kts 241°
2026-04-30 22:15 -20.01720 -45.20495 28714 ft 443 kts 241°
2026-04-30 22:15 -20.03236 -45.23340 28962 ft 442 kts 241°
2026-04-30 22:15 -20.04749 -45.26182 29224 ft 441 kts 241°
2026-04-30 22:15 -20.06237 -45.28977 29484 ft 439 kts 241°
2026-04-30 22:16 -20.07740 -45.31801 29750 ft 438 kts 241°
2026-04-30 22:16 -20.09241 -45.34624 30014 ft 437 kts 241°
2026-04-30 22:17 -20.15084 -45.41973 30710 ft 436 kts 221°
2026-04-30 22:17 -20.17437 -45.43996 30943 ft 435 kts 220°
2026-04-30 22:17 -20.22138 -45.48024 31398 ft 432 kts 221°
2026-04-30 22:18 -20.24466 -45.50051 31637 ft 431 kts 221°
2026-04-30 22:18 -20.29047 -45.54077 32076 ft 430 kts 221°
2026-04-30 22:19 -20.36017 -45.60183 32076 ft 430 kts 221°
2026-04-30 22:20 -20.42942 -45.66222 32079 ft 428 kts 221°
2026-04-30 22:20 -20.49855 -45.72267 32056 ft 428 kts 221°
2026-04-30 22:21 -20.54435 -45.76276 32064 ft 428 kts 221°
2026-04-30 22:21 -20.59042 -45.80314 32067 ft 429 kts 221°
2026-04-30 22:22 -20.63657 -45.84360 32079 ft 429 kts 221°
2026-04-30 22:22 -20.68272 -45.88411 32068 ft 429 kts 222°
2026-04-30 22:23 -20.72889 -45.92467 32070 ft 429 kts 222°
2026-04-30 22:23 -20.77498 -45.96529 32074 ft 429 kts 222°
2026-04-30 22:24 -20.82109 -46.00599 32074 ft 429 kts 222°
2026-04-30 22:24 -20.86715 -46.04669 32073 ft 429 kts 222°
2026-04-30 22:25 -20.91320 -46.08740 32066 ft 429 kts 222°
2026-04-30 22:25 -20.95912 -46.12750 32069 ft 430 kts 218°
2026-04-30 22:26 -21.01250 -46.15712 32073 ft 436 kts 202°
2026-04-30 22:26 -21.04137 -46.16714 32076 ft 437 kts 201°
2026-04-30 22:27 -21.09935 -46.18663 32067 ft 436 kts 201°
2026-04-30 22:27 -21.18591 -46.21697 32075 ft 436 kts 201°
2026-04-30 22:28 -21.27282 -46.24641 32074 ft 437 kts 201°
2026-04-30 22:29 -21.38845 -46.28566 32075 ft 437 kts 201°
2026-04-30 22:31 -21.59166 -46.35500 32088 ft 438 kts 202°
2026-04-30 22:32 -21.73631 -46.40610 32104 ft 437 kts 203°
2026-04-30 22:33 -21.87982 -46.45918 32105 ft 437 kts 203°
2026-04-30 22:35 -22.02230 -46.51163 32111 ft 429 kts 204°
2026-04-30 22:36 -22.13566 -46.55104 30859 ft 426 kts 195°
2026-04-30 22:36 -22.16484 -46.55669 30442 ft 424 kts 194°
2026-04-30 22:37 -22.25062 -46.57162 28822 ft 410 kts 194°
2026-04-30 22:37 -22.27878 -46.57666 28044 ft 410 kts 194°
2026-04-30 22:37 -22.33474 -46.58696 26712 ft 404 kts 194°
2026-04-30 22:38 -22.38958 -46.59721 25542 ft 396 kts 194°
2026-04-30 22:38 -22.44371 -46.60738 24321 ft 393 kts 194°
2026-04-30 22:39 -22.47024 -46.61237 23774 ft 390 kts 194°
2026-04-30 22:39 -22.54954 -46.62727 21986 ft 378 kts 194°
2026-04-30 22:40 -22.62638 -46.64060 20331 ft 368 kts 190°
2026-04-30 22:41 -22.70189 -46.64823 18807 ft 358 kts 189°
2026-04-30 22:41 -22.75095 -46.65320 17743 ft 350 kts 189°
2026-04-30 22:42 -22.84590 -46.66336 15616 ft 337 kts 188°
2026-04-30 22:43 -22.89227 -46.66841 14588 ft 332 kts 188°
2026-04-30 22:43 -22.93777 -46.67337 13489 ft 325 kts 187°
2026-04-30 22:44 -22.98271 -46.67826 12243 ft 323 kts 187°
2026-04-30 22:45 -23.07202 -46.68799 10532 ft 320 kts 186°
2026-04-30 22:45 -23.11414 -46.69258 10221 ft 293 kts 186°
2026-04-30 22:46 -23.14997 -46.69650 9776 ft 279 kts 186°
2026-04-30 22:47 -23.22684 -46.70491 8626 ft 277 kts 187°
2026-04-30 22:47 -23.26523 -46.70911 8028 ft 277 kts 187°
2026-04-30 22:48 -23.30363 -46.71332 7296 ft 282 kts 187°
2026-04-30 22:49 -23.36164 -46.71968 6331 ft 270 kts 187°
2026-04-30 22:49 -23.41352 -46.72536 5990 ft 238 kts 187°
2026-04-30 22:50 -23.47930 -46.73259 5413 ft 241 kts 187°
2026-04-30 22:51 -23.51206 -46.73256 4997 ft 231 kts 160°
2026-04-30 22:51 -23.53968 -46.71674 4461 ft 221 kts 148°
2026-04-30 22:52 -23.55244 -46.70784 4183 ft 213 kts 147°
2026-04-30 22:52 -23.57600 -46.69149 3697 ft 189 kts 146°
2026-04-30 22:53 -23.59669 -46.67720 3201 ft 165 kts 147°
2026-04-30 22:53 -23.61459 -46.66473 2772 ft 142 kts 146°
2026-04-30 22:53 -23.62269 -46.65916 2604 ft 130 kts 146°
2026-04-30 22:54 -23.63178 -46.65291 2609 ft 36 kts 147°
2026-04-30 22:55 -23.63362 -46.65308 2601 ft 10 kts 328°
2026-04-30 22:55 -23.63245 -46.65390 2601 ft 10 kts 326°
2026-04-30 22:56 -23.63133 -46.65467 2601 ft 9 kts 329°
2026-04-30 22:56 -23.62966 -46.65547 2602 ft 9 kts 327°
2026-04-30 22:57 -23.62862 -46.65619 2602 ft 9 kts 327°
2026-04-30 22:57 -23.62762 -46.65687 2602 ft 9 kts 328°
2026-04-30 22:58 -23.62733 -46.65769 2600 ft 6 kts 237°
2026-04-30 22:59 -23.62751 -46.65798 2600 ft 0 kts 237°